RH
86 87 85 83 81 79 80 80 81 80 78 79 79 79 80 83 76 19 30 43 49 62 62 23 18 21 24 35 32 38 52 42 37 35 37 31 34 30 36 32 38 41 47 48 44
86 85 86 84 80 78 80 81 80 78 77 76 77 78 80 80 27 25 47 50 52 58 25 21 20 19 27 32 32 40 51 40 28 31 35 32 34 33 34 34 45 46 45 46 47
88 87 87 84 78 77 79 80 79 76 75 74 75 76 78 68 26 21 54 53 53 51 22 22 18 22 35 28 29 34 44 31 30 34 30 34 37 36 41 51 53 57 53 52 56
89 88 88 87 84 78 79 78 75 76 74 74 73 74 77 35 26 21 51 55 57 37 21 19 19 30 34 30 28 37 30 30 38 42 39 39 41 44 49 56 48 48 51 58 63
90 92 91 90 84 79 80 77 75 74 74 73 72 74 44 21 21 15 47 38 23 25 23 23 22 26 26 24 25 32 35 33 40 46 45 40 46 48 47 46 45 42 52 65 68
89 90 92 92 87 83 81 74 74 76 77 75 74 74 34 23 18 16 20 24 28 29 28 28 27 24 26 28 32 29 35 36 43 44 43 46 42 49 45 42 40 44 59 66 67
88 90 91 92 87 81 77 70 69 72 72 72 72 33 22 26 18 18 18 28 29 34 32 28 28 28 28 34 32 34 42 41 42 41 45 44 49 50 45 39 40 45 53 64 69
86 89 91 92 91 83 75 69 64 64 67 67 68 32 28 24 20 16 18 25 24 27 36 34 30 30 31 32 30 34 35 43 41 42 48 51 55 43 42 40 44 48 56 64 69
84 87 90 91 93 86 78 66 61 56 62 56 39 28 24 30 21 18 20 26 25 28 33 14 28 32 34 33 35 35 31 26 37 38 44 51 51 47 41 38 41 51 59 63 68
85 86 89 92 94 86 80 62 59 56 45 17 13 30 22 23 25 24 19 23 28 27 38 36 32 35 29 31 40 33 32 28 31 36 38 45 48 37 48 43 44 56 59 62 66
93 90 89 90 93 87 66 48 38 35 29 29 26 24 22 22 28 23 23 25 25 27 31 31 43 36 29 28 25 26 28 30 28 31 41 39 37 31 52 50 52 58 63 58 65
92 91 90 93 91 82 59 42 54 56 33 30 26 22 22 28 26 23 20 27 27 31 30 38 40 28 26 27 26 27 30 33 33 29 30 34 33 30 45 53 51 68 69 57 58
92 91 92 94 86 62 49 53 50 48 44 28 25 23 26 27 27 26 23 28 29 30 29 36 32 23 24 27 24 27 33 34 36 33 32 37 45 46 45 45 44 58 62 57 57
93 93 94 89 70 50 55 48 50 55 48 32 30 30 25 32 35 25 24 35 34 32 30 34 27 26 32 26 24 34 29 33 37 47 57 37 60 52 52 49 43 45 51 63 59
93 92 91 88 57 52 53 49 54 64 91 33 31 26 26 27 27 34 28 28 33 29 35 40 34 36 35 26 25 29 31 36 44 55 56 52 62 51 47 50 47 44 44 53 50
91 91 87 61 58 54 51 57 65 68 94 44 36 33 31 31 31 30 29 27 29 35 28 33 32 36 29 25 26 26 34 39 45 60 84 48 55 61 49 42 41 43 40 41 41
91 92 73 45 58 52 56 68 76 76 37 40 46 36 31 37 35 38 35 32 40 54 66 42 34 30 28 33 36 38 51 84 82 92 75 46 59 52 45 42 42 46 38 40 38
92 94 68 43 53 54 66 63 70 43 45 37 41 36 41 36 40 40 37 35 30 34 56 63 75 36 28 34 42 42 46 69 72 71 62 43 62 51 46 42 41 37 38 38 40
90 72 65 62 52 61 66 77 65 47 40 42 40 42 45 38 43 44 34 34 33 31 54 49 54 32 28 30 34 42 56 42 50 51 67 60 42 52 49 48 45 42 40 44 43
74 65 62 53 54 71 63 57 47 39 37 38 47 43 47 40 44 45 45 32 37 31 30 42 63 37 32 35 38 41 34 52 67 74 71 58 52 62 55 51 49 47 46 46 46
78 65 69 54 64 70 68 52 40 31 35 41 44 46 42 42 47 48 47 34 31 35 32 41 49 50 41 44 45 47 46 41 43 52 70 70 61 40 45 45 46 49 44 46 46
78 71 64 62 68 55 55 46 48 40 38 40 40 44 41 41 49 53 52 42 27 36 47 42 60 80 55 35 31 34 39 35 61 62 58 63 60 32 37 42 46 46 43 43 42
74 62 66 63 66 61 57 45 44 41 43 45 48 41 37 44 56 52 52 39 32 40 47 52 66 88 70 47 41 43 38 33 38 50 66 74 61 35 43 47 42 45 45 44 42
72 72 66 58 54 57 58 54 55 50 43 39 41 38 42 44 41 54 53 50 40 38 50 51 65 75 83 73 64 75 61 57 56 77 67 56 48 37 36 39 41 47 47 45 45
69 72 71 67 62 58 61 56 54 56 47 42 46 42 43 54 54 58 54 55 47 53 43 52 73 69 66 62 60 63 64 63 70 67 74 64 62 50 44 51 52 48 46 46 47
78 66 65 62 58 63 71 62 56 53 53 57 56 50 43 50 50 56 54 60 62 58 56 50 76 71 77 61 62 73 62 58 59 58 58 56 57 42 49 47 48 48 47 50 49
66 60 69 71 62 65 60 57 58 55 54 51 52 54 56 54 55 57 58 60 61 69 61 54 66 83 81 69 76 90 67 57 59 55 56 69 51 52 55 54 58 54 48 47 48
Wind_Speed
21 20 19 16 15 15 12 10 8 8 7 7 6 8 10 11 14 7 11 8 10 16 19 10 7 2 3 2 4 3 3 4 5 4 6 4 2 5 2 6 8 5 8 7 10
20 22 21 19 17 15 13 9 7 7 6 4 4 6 9 11 5 14 6 11 14 13 9 10 10 10 3 2 2 4 4 7 7 8 6 6 6 6 3 4 8 8 8 8 10
19 20 19 18 17 17 14 9 7 6 4 3 2 4 7 7 3 7 11 12 12 11 5 7 7 5 1 5 6 6 5 6 6 8 7 5 6 3 7 6 4 6 8 10 12
19 20 20 19 17 17 13 8 7 5 4 4 3 4 7 4 4 7 12 9 11 9 7 7 4 3 3 6 2 4 6 5 5 3 2 1 3 4 3 3 4 5 7 9 10
20 20 20 20 18 16 12 7 6 6 5 4 3 5 3 5 5 8 10 9 6 6 10 7 9 6 7 4 6 7 4 3 6 2 2 2 1 4 5 5 2 2 9 8 7
20 20 20 19 18 15 11 6 6 5 4 4 5 6 4 5 4 7 5 7 9 8 9 9 5 6 4 6 6 4 2 5 4 3 1 4 2 3 5 6 3 4 7 7 7
21 21 21 21 19 16 9 6 5 4 3 4 5 3 11 4 4 5 6 2 5 6 5 5 5 5 6 4 2 3 4 7 7 6 1 2 7 9 7 6 3 5 5 6 7
21 21 21 21 19 15 9 5 5 5 5 5 6 3 4 1 6 7 8 1 4 4 2 3 5 2 3 1 4 4 4 3 7 7 4 2 8 10 8 6 5 3 5 6 6
21 22 22 21 18 13 9 6 6 7 6 6 3 3 4 2 2 7 5 5 5 2 1 3 4 2 2 4 3 4 5 9 1 8 6 6 6 8 8 7 5 5 5 4 4
17 19 21 21 19 14 10 5 5 7 5 4 4 2 3 5 4 5 5 5 3 6 3 4 3 0 6 6 4 9 7 8 7 4 4 7 12 12 11 8 6 5 5 3 5
18 18 20 22 19 14 9 3 2 1 8 5 4 3 3 6 1 5 3 5 5 5 4 3 6 6 7 6 6 6 8 9 6 5 2 7 10 9 10 7 7 5 3 6 3
18 18 19 19 17 16 4 4 4 3 4 1 1 4 1 2 3 10 12 4 5 5 7 0 5 4 5 4 6 9 8 7 3 3 9 7 15 11 13 7 6 7 4 5 3
18 19 20 18 13 4 7 5 3 4 1 2 2 3 3 5 3 7 9 6 4 6 7 4 3 3 5 6 8 8 6 7 7 12 9 7 3 3 6 7 6 4 3 4 4
19 20 20 19 2 2 4 4 2 3 3 4 2 2 1 1 2 2 4 1 1 4 6 3 3 4 7 3 6 5 5 7 8 7 4 5 6 4 6 6 8 8 8 6 5
18 20 18 12 5 3 4 3 1 2 3 3 2 1 3 3 6 0 1 3 4 5 3 1 3 4 6 3 4 7 9 9 3 4 6 1 1 3 6 7 9 9 9 8 6
17 18 20 2 3 2 3 2 2 2 3 2 1 5 2 5 2 6 1 3 0 3 5 1 3 1 4 7 6 10 10 9 5 1 1 3 4 7 4 2 3 7 9 8 7
15 14 8 5 2 3 3 2 2 4 3 3 3 5 6 4 2 4 2 6 5 7 5 5 4 4 2 6 2 8 7 4 5 2 5 4 1 10 5 3 4 2 9 8 7
17 12 2 2 3 2 2 1 4 1 4 2 2 6 2 5 2 5 6 3 8 7 5 4 5 3 3 3 3 5 3 3 4 3 7 5 6 6 6 4 2 4 9 9 8
19 3 2 3 1 2 2 5 2 4 2 5 3 4 4 3 2 4 5 3 4 7 5 6 4 3 3 1 2 3 2 1 4 7 2 6 6 2 3 4 3 4 5 7 8
4 3 2 3 1 2 1 3 2 2 2 2 3 1 4 6 5 6 2 2 3 4 5 2 6 2 3 2 2 2 2 1 2 5 6 6 6 5 4 5 6 6 8 8 8
3 3 2 4 1 1 3 3 3 3 3 3 3 3 2 3 3 4 1 3 0 3 3 1 2 6 1 5 2 2 2 3 1 2 3 6 6 4 4 3 6 10 10 9 9
3 2 1 2 1 1 3 3 2 2 2 1 2 2 3 4 4 3 2 2 5 1 2 2 3 5 8 5 5 3 3 3 1 3 4 4 9 8 7 1 2 5 5 9 9
3 3 2 1 2 3 2 3 1 3 2 1 1 0 3 2 4 4 3 4 4 2 3 3 3 5 2 1 3 2 4 5 6 3 5 4 8 1 5 3 5 7 8 4 8
3 2 0 2 1 3 2 3 3 1 2 1 1 0 1 4 7 4 3 3 3 3 4 3 4 7 7 6 8 9 12 8 9 6 6 15 19 21 15 13 10 8 7 8 5
1 1 1 1 2 2 0 2 3 3 3 3 3 6 4 4 5 6 6 3 8 8 5 3 5 9 14 12 12 17 22 16 14 18 13 22 17 25 14 4 3 5 7 7 8
2 1 2 1 0 3 4 5 5 4 4 5 5 3 7 6 6 10 8 5 6 5 4 4 4 2 6 13 15 14 21 20 16 18 18 24 23 15 2 6 8 8 7 7 7
2 0 2 3 4 3 5 5 6 4 7 4 4 5 7 7 5 6 6 6 8 7 5 6 3 0 10 2 5 11 11 4 6 7 6 6 7 4 7 7 7 8 5 7 8
Wind_Direction
9 4 3 0 359 358 357 354 351 353 355 343 337 329 323 330 310 45 39 329 325 325 311 286 231 265 306 92 346 315 289 65 47 26 79 102 256 97 348 80 86 107 49 6 344
8 4 359 356 356 358 357 357 359 1 5 354 344 326 324 330 289 60 336 343 339 331 339 351 354 327 65 69 7 7 22 43 19 26 54 60 9 28 271 136 48 15 20 6 360
6 2 0 356 354 355 355 356 7 13 29 36 12 332 320 320 270 37 357 345 339 318 322 284 285 291 18 81 358 356 71 100 56 42 11 75 102 35 341 88 63 353 358 7 15
1 360 357 355 352 352 354 1 17 40 59 59 40 340 332 264 54 23 351 335 314 295 320 322 303 1 56 40 45 115 31 40 108 39 13 126 72 125 70 83 45 24 34 24 21
357 355 355 355 351 352 350 6 37 55 58 51 34 356 280 86 44 2 354 355 345 338 16 352 23 341 39 42 4 82 98 70 75 103 38 73 151 345 174 124 85 20 52 37 27
357 353 353 353 350 353 355 15 38 56 49 16 352 338 255 74 309 358 16 6 11 350 38 24 20 318 61 33 24 358 111 113 170 166 170 275 227 121 157 129 163 78 71 55 25
356 355 353 354 353 357 4 11 16 12 12 344 335 301 60 81 319 315 355 69 7 9 41 25 325 32 307 127 304 148 209 191 193 195 281 43 255 222 132 153 196 76 79 71 49
355 353 353 353 352 352 351 347 332 321 315 310 314 287 74 116 320 6 2 10 65 36 30 343 324 83 6 167 208 246 217 268 127 182 128 183 285 110 132 175 164 104 72 66 58
353 351 350 350 347 342 341 316 298 295 276 279 269 254 74 145 344 359 11 343 294 169 347 286 287 8 222 249 232 229 347 355 119 177 144 205 286 140 166 185 189 135 88 50 47
350 350 346 347 341 332 326 273 289 305 237 239 260 161 56 6 346 309 26 294 305 296 217 237 253 261 24 15 20 331 342 326 305 124 214 250 253 259 176 179 186 133 117 75 40
348 347 345 342 335 326 328 247 240 158 32 46 13 74 37 332 213 26 326 300 215 238 19 31 49 31 4 7 338 300 287 285 354 94 322 258 276 280 149 164 164 175 124 98 54
345 342 338 337 332 322 289 50 50 346 104 2 161 111 76 324 309 13 340 18 334 22 335 115 72 27 326 268 280 297 309 1 330 353 302 284 283 277 166 169 177 149 172 140 114
342 339 337 331 326 347 79 53 335 324 236 82 41 32 355 320 52 344 2 314 7 18 355 50 53 309 291 313 357 332 31 345 301 318 270 321 320 104 83 123 107 137 196 157 135
344 339 336 326 353 324 60 356 324 321 184 25 64 74 260 323 196 302 21 339 201 17 339 59 130 325 309 358 14 300 34 333 316 348 307 17 293 171 161 199 188 196 186 185 158
344 340 335 349 307 47 342 329 320 261 45 30 34 75 272 56 295 200 208 280 41 331 326 317 16 351 318 25 350 268 332 283 252 299 307 4 263 236 166 222 207 198 176 164 156
341 338 327 310 92 24 325 290 238 53 295 60 325 349 326 53 77 327 302 223 180 287 214 173 110 297 336 301 253 279 295 291 153 200 318 127 92 281 193 88 32 163 150 147 153
328 333 340 301 8 344 313 243 36 78 196 55 338 345 308 4 2 5 24 46 29 3 6 315 134 113 283 318 164 345 343 347 360 339 240 149 333 244 131 92 27 347 147 150 154
321 322 171 70 341 323 224 254 58 124 47 171 257 282 4 358 120 324 342 82 50 346 279 352 332 31 4 54 300 298 350 93 304 325 290 203 243 275 104 90 18 332 145 155 167
313 181 247 96 96 242 259 58 34 31 352 344 243 278 146 158 241 308 89 51 51 11 22 357 295 160 89 12 21 344 42 24 275 267 240 247 251 84 140 186 195 222 158 188 190
321 283 120 35 146 258 50 101 111 51 325 241 343 318 319 9 337 7 43 89 116 21 347 16 299 23 135 200 223 265 344 323 275 301 299 275 294 284 229 233 197 217 220 221 204
273 309 92 94 191 244 55 65 105 81 355 330 357 299 334 345 329 313 16 112 145 130 311 345 193 291 215 202 187 184 240 215 271 266 269 309 261 180 47 64 194 209 211 204 200
302 290 156 166 354 349 72 27 341 127 194 234 282 317 326 348 297 286 300 60 92 358 291 62 304 282 255 59 57 25 307 319 262 302 259 301 272 243 116 188 238 290 239 203 186
303 304 204 111 342 101 141 114 311 186 212 201 260 305 46 294 303 221 323 126 133 273 335 121 231 302 269 79 25 237 185 237 299 327 227 277 266 52 137 210 242 245 262 281 181
295 301 189 71 189 337 166 164 180 174 291 289 319 54 235 246 217 277 261 125 128 216 110 99 241 216 246 286 328 290 281 265 262 252 238 242 273 283 304 342 22 12 23 353 222
256 70 89 340 101 63 341 45 202 200 229 208 220 235 222 273 267 231 236 225 194 170 180 202 251 239 260 277 276 271 278 272 244 250 249 268 266 276 304 52 17 13 13 355 334
296 243 185 88 176 259 127 210 217 156 199 194 229 295 213 234 256 301 315 313 258 167 204 154 261 5 272 263 256 270 265 269 245 252 253 262 271 284 240 29 22 16 356 337 332
86 201 294 140 177 188 205 204 206 146 220 251 231 276 258 259 315 313 298 276 259 263 212 160 234 175 282 1 353 279 257 195 195 208 210 227 257 20 46 32 10 335 348 340 339